Volver al catálogo

STARLINK-5236

ActivoComunicacionesVLEO
NORAD 55274·PAYLOAD·🇺🇸 United States

Lanzado Jan 19, 2023 desde Vandenberg Space Force Base

Loading…

Próximos Pases (próximas 24 horas)

TLE

ActualizadoSource: CelesTrak SupGP

Época: Sep 15, 2026, 01:18 UTC

1 55274C 23010F   26258.05465278 -.00005722  00000+0 -47938-3 0  2588
2 55274  69.9995 267.1600 0003720 264.4647 331.9666 14.98339597    12

Sigue STARLINK-5236 en tiempo real con AllMySat

Download on the App Store